EW8081 Weather Reports


Display with metric or nautical units.
time (UTC)temp
F
wind
direction
speed
MPH
gust
MPH
rain 1hr
in
rain 24hr
in
rain mn
in
humidity
%
barometer
mb
20260508170013 57 284 6.0 17.0 0.00 0.00 0.00 68 1020.5
20260508164520 56 316 8.0 14.0 0.00 0.00 0.00 68 1020.5
20260508163014 56 326 7.0 13.0 0.00 0.00 0.00 68 1020.6
20260508161510 56 314 6.0 12.0 0.00 0.00 0.00 68 1020.5
20260508160005 56 310 5.0 14.0 0.00 0.00 0.00 68 1020.4
20260508154504 56 299 6.0 14.0 0.00 0.00 0.00 68 1020.4
20260508153002 56 272 5.0 11.0 0.00 0.00 0.00 68 1020.5
20260508151602 56 336 5.0 13.0 0.00 0.00 0.00 67 1020.5
20260508150057 57 284 6.0 11.0 0.00 0.00 0.00 66 1020.5
20260508144655 57 320 5.0 12.0 0.00 0.00 0.00 66 1020.4
20260508143058 57 297 8.0 12.0 0.00 0.00 0.00 66 1020.3
20260508141603 57 302 5.0 11.0 0.00 0.00 0.00 66 1020.5
20260508140048 57 293 6.0 13.0 0.00 0.00 0.00 65 1020.5
20260508134550 58 294 8.0 15.0 0.00 0.00 0.00 64 1020.3
20260508133046 58 311 8.0 14.0 0.00 0.00 0.00 63 1020.1
20260508131557 58 309 8.0 15.0 0.00 0.00 0.00 63 1020.1
20260508130044 58 314 6.0 13.0 0.00 0.00 0.00 64 1020.3
20260508124543 58 319 3.0 10.0 0.00 0.00 0.00 63 1020.3
20260508123043 58 325 5.0 13.0 0.00 0.00 0.00 63 1020.3
20260508121543 58 324 5.0 12.0 0.00 0.00 0.00 63 1020.3
20260508120058 59 283 6.0 12.0 0.00 0.00 0.00 63 1020.3
20260508114553 58 302 5.0 12.0 0.00 0.00 0.00 63 1020.3
20260508113039 59 291 5.0 12.0 0.00 0.00 0.00 62 1020.0
20260508111541 59 319 8.0 13.0 0.00 0.00 0.00 62 1019.9
20260508110036 59 311 8.0 14.0 0.00 0.00 0.00 62 1019.6
20260508104538 59 284 6.0 12.0 0.00 0.00 0.00 62 1019.5
20260508103051 59 305 6.0 14.0 0.00 0.00 0.00 61 1019.3
20260508101532 59 283 6.0 13.0 0.00 0.00 0.00 60 1019.1
20260508100031 59 328 7.0 13.0 0.00 0.00 0.00 59 1018.9
20260508094530 60 290 7.0 16.0 0.00 0.00 0.00 59 1018.8
20260508093037 60 304 7.0 16.0 0.00 0.00 0.00 58 1018.6
20260508091532 60 337 10.0 20.0 0.00 0.00 0.00 57 1018.5
20260508090023 60 284 7.0 16.0 0.00 0.00 0.00 57 1018.3
20260508084521 61 314 6.0 13.0 0.00 0.00 0.00 56 1018.0
20260508083019 61 283 9.0 17.0 0.00 0.00 0.00 55 1017.6
20260508081519 62 341 7.0 13.0 0.00 0.00 0.00 54 1017.3
20260508080018 62 290 7.0 17.0 0.00 0.00 0.00 53 1017.3
20260508074521 62 309 7.0 17.0 0.00 0.00 0.00 51 1017.1
20260508073019 63 280 6.0 14.0 0.00 0.00 0.00 50 1016.9
20260508071517 63 317 7.0 12.0 0.00 0.00 0.00 49 1016.5
20260508070016 64 316 8.0 16.0 0.00 0.00 0.00 47 1016.2
20260508064514 65 283 4.0 13.0 0.00 0.00 0.00 46 1016.1
20260508063016 66 294 8.0 15.0 0.00 0.00 0.00 43 1015.7
20260508061512 71 313 8.0 17.0 0.00 0.00 0.00 37 1015.5
20260508060011 72 289 8.0 19.0 0.00 0.00 0.00 35 1015.3
20260508054509 73 291 6.0 19.0 0.00 0.00 0.00 34 1015.1
20260508053008 74 290 4.0 15.0 0.00 0.00 0.00 34 1014.9
20260508051507 73 308 5.0 17.0 0.00 0.00 0.00 35 1014.6
20260508050006 73 286 10.0 20.0 0.00 0.00 0.00 34 1014.4
20260508044504 74 293 7.0 16.0 0.00 0.00 0.00 35 1014.3
20260508043004 73 307 10.0 20.0 0.00 0.00 0.00 35 1014.0
20260508041502 74 297 9.0 23.0 0.00 0.00 0.00 34 1014.0
20260508040001 74 305 9.0 18.0 0.00 0.00 0.00 34 1014.1
20260508034612 74 292 9.0 17.0 0.00 0.00 0.00 35 1014.1
20260508033058 74 356 11.0 18.0 0.00 0.00 0.00 34 1014.0
20260508031557 73 292 10.0 26.0 0.00 0.00 0.00 34 1014.3
20260508030055 73 316 7.0 21.0 0.00 0.00 0.00 35 1014.5
20260508024551 73 309 11.0 21.0 0.00 0.00 0.00 36 1014.7
20260508023048 73 320 10.0 19.0 0.00 0.00 0.00 35 1014.9
20260508021551 71 285 10.0 20.0 0.00 0.00 0.00 38 1015.1
20260508020047 71 284 8.0 15.0 0.00 0.00 0.00 39 1015.4
20260508014539 70 309 8.0 19.0 0.00 0.00 0.00 41 1015.5
20260508013043 69 293 10.0 20.0 0.00 0.00 0.00 41 1015.7
20260508011532 68 283 11.0 21.0 0.00 0.00 0.00 41 1015.9
20260508010033 67 291 10.0 20.0 0.00 0.00 0.00 42 1015.8
20260508004527 67 235 12.0 21.0 0.00 0.00 0.00 43 1016.2
20260508003124 66 332 11.0 24.0 0.00 0.00 0.00 43 1016.2
20260508001538 65 295 13.0 19.0 0.00 0.00 0.00 44 1016.5
20260508000021 65 324 12.0 23.0 0.00 0.00 0.00 45 1016.5
20260507234518 64 314 8.0 19.0 0.00 0.00 0.00 46 1016.5
20260507233017 63 295 10.0 20.0 0.00 0.00 0.00 46 1016.5
20260507231513 62 309 10.0 19.0 0.00 0.00 0.00 47 1016.4
20260507230011 61 293 9.0 19.0 0.00 0.00 0.00 48 1016.4
20260507224506 60 326 9.0 15.0 0.00 0.00 0.00 49 1016.3
20260507223004 59 291 7.0 18.0 0.00 0.00 0.00 50 1016.4
20260507221559 56 341 6.0 13.0 0.00 0.00 0.00 55 1016.2
20260507220056 54 293 7.0 19.0 0.00 0.00 0.00 57 1016.3
20260507214559 53 332 8.0 18.0 0.00 0.00 0.00 57 1016.3
20260507213051 53 299 6.0 15.0 0.00 0.00 0.00 58 1016.1
20260507211549 52 307 7.0 19.0 0.00 0.00 0.00 58 1016.0
20260507210048 52 295 9.0 18.0 0.00 0.00 0.00 58 1016.0
20260507204550 51 320 9.0 17.0 0.00 0.00 0.00 58 1015.8
20260507203041 51 298 7.0 18.0 0.00 0.00 0.00 60 1015.8
20260507201551 50 314 9.0 17.0 0.00 0.00 0.00 60 1015.8
20260507200039 50 307 8.0 16.0 0.00 0.00 0.00 61 1015.9
20260507194538 50 282 8.0 16.0 0.00 0.00 0.00 61 1016.1
20260507193036 50 305 6.0 15.0 0.00 0.00 0.00 61 1016.0
20260507191534 50 329 7.0 17.0 0.00 0.00 0.00 61 1016.0
20260507190033 49 291 7.0 17.0 0.00 0.00 0.00 61 1016.1
20260507184529 50 326 8.0 15.0 0.00 0.00 0.00 61 1016.1
20260507183028 50 294 7.0 18.0 0.00 0.00 0.00 61 1015.8
20260507181525 50 320 7.0 18.0 0.00 0.00 0.00 61 1015.8
20260507180024 49 348 8.0 17.0 0.00 0.00 0.00 61 1016.0
20260507174533 49 305 8.0 16.0 0.00 0.00 0.00 61 1016.0
20260507173022 49 353 8.0 17.0 0.00 0.00 0.00 60 1016.1
20260507171518 49 329 6.0 14.0 0.00 0.00 0.00 60 1016.3